User: anonymous   Login
Location: Beaurevoir
(49.9971°N, 3.3085°E)
Time: 16:39:47
(UTC+00:00)
Language:

Okean 2 - Orbit

View from above orbital plane
View from above orbital plane
View from above satellite
View from above satellite

Ground track
Ground track

The orbit data is extracted from the following two-line orbital elements,

1 20510U 90018A   24202.08911017  .00006783  00000-0  45306-3 0  9998
2 20510  82.5120 198.2214 0010036 204.9657 220.1514 15.06817872869821
Epoch (UTC): 20 July 2024 02:08:19
Eccentricity: 0.0010036
inclination: 82.5120°
perigee height: 539 km
apogee height: 553 km
right ascension of ascending node: 198.2214°
argument of perigee: 204.9657°
revolutions per day: 15.06817872
mean anomaly at epoch: 220.1514°
orbit number at epoch: 86982

The dashed part of the orbit path shows where the satellite is in the earth's shadow,  

DLR